Date,TemperatureHighF,TemperatureAvgF,TemperatureLowF,DewpointHighF,DewpointAvgF,DewpointLowF,HumidityHigh,HumidityAvg,HumidityLow,PressureMaxIn,PressureMinIn,WindSpeedMaxMPH,WindSpeedAvgMPH,GustSpeedMaxMPH,PrecipitationSumIn
2014-3-21,70.9,65.5,61.0,60.9,56.4,48.2,98,74,46,30.03,29.94,12,2,12,0.01
2014-3-22,73.5,63.9,55.9,67.4,61.1,55.9,100,92,70,30.00,29.92,16,1,16,0.00
2014-3-23,77.4,66.3,54.4,68.3,60.6,45.9,100,83,59,30.09,29.89,22,4,22,0.01
2014-3-24,64.8,56.5,50.7,50.8,45.8,41.2,88,68,45,30.08,29.89,15,2,15,0.00
2014-3-25,67.6,55.3,44.9,49.4,30.8,20.3,87,45,19,30.20,29.95,23,6,27,0.00
2014-3-26,54.8,47.5,35.5,39.4,30.3,22.1,75,52,35,30.32,30.12,15,2,15,0.00
2014-3-27,66.1,62.7,57.5,62.3,58.6,52.4,100,87,72,30.09,29.92,15,3,15,0.25
2014-3-28,68.3,64.6,61.3,68.1,64.6,61.3,100,100,100,29.94,29.81,21,2,21,3.74
2014-3-29,69.3,62.9,54.7,68.9,50.5,37.2,100,68,35,30.12,29.85,19,3,19,11.64
2014-3-30,68.1,55.5,44.6,49.5,44.2,35.3,94,68,32,30.19,30.07,17,3,17,0.00
2014-3-31,69.4,57.0,41.6,57.8,50.3,41.3,100,81,52,30.10,30.01,14,1,14,0.01
2014-4-1,71.8,63.3,52.9,64.9,60.2,52.6,100,90,71,30.08,29.99,15,1,15,0.01
2014-4-2,76.5,68.1,61.3,70.0,65.8,61.0,100,93,74,30.04,29.97,15,2,15,0.01
2014-4-3,77.7,70.4,66.6,69.5,67.8,66.6,100,92,72,29.98,29.86,17,2,17,0.00
2014-4-4,76.7,70.9,67.3,71.0,68.9,63.5,100,94,74,29.95,29.82,10,1,10,0.13
2014-4-5,67.9,60.7,56.3,67.6,55.1,47.9,100,83,60,29.99,29.89,17,3,17,0.04
2014-4-6,70.1,63.3,55.6,70.1,62.9,55.6,100,99,92,29.89,29.62,19,2,19,0.01
2014-4-7,77.4,70.2,59.0,71.6,63.1,49.1,100,80,52,29.83,29.58,20,2,20,3.57
2014-4-8,67.8,55.1,47.1,56.8,49.6,45.7,99,83,53,29.97,29.74,30,2,30,0.31
2014-4-9,75.4,58.4,45.7,51.3,45.6,34.1,98,68,24,30.16,29.97,18,3,18,0.00
2014-4-10,72.3,60.6,45.8,57.7,50.1,41.2,100,72,34,30.19,30.11,14,2,14,0.00
2014-4-11,75.4,67.4,59.2,65.5,62.1,55.8,100,84,63,30.16,30.05,13,2,13,0.00
2014-4-12,76.3,69.2,64.2,68.7,64.6,60.3,100,87,63,30.10,29.99,14,1,14,0.00
2014-4-13,77.4,71.0,66.3,70.4,68.1,65.4,100,91,76,30.00,29.86,12,2,12,0.01
2014-4-14,76.7,69.5,64.2,71.4,67.9,62.6,100,95,76,29.86,29.60,15,3,16,1.42
2014-4-15,66.1,52.7,45.1,65.6,40.9,25.9,100,69,27,30.11,29.74,30,8,30,0.31
2014-4-16,59.9,50.3,37.2,50.4,39.6,33.9,91,69,41,30.18,30.05,16,2,16,0.00
2014-4-17,64.8,59.2,49.2,61.4,55.7,46.2,98,88,78,30.14,30.04,15,2,15,0.04
2014-4-18,69.1,61.8,57.5,63.2,59.0,53.8,100,91,73,30.08,29.96,22,5,22,0.84
2014-4-19,80.3,65.5,53.3,57.0,53.0,48.4,96,69,34,30.06,29.97,15,4,18,0.00
2014-4-20,77.4,62.8,53.2,61.3,56.1,52.4,100,81,50,30.11,30.00,16,2,16,0.00
2014-4-21,71.8,65.3,53.8,62.5,59.4,53.3,100,82,66,30.08,29.94,10,1,10,0.00
2014-4-22,76.0,66.7,55.1,67.3,62.6,54.8,100,87,64,29.94,29.78,15,2,16,0.00
2014-4-23,80.9,69.6,59.6,68.3,64.8,59.6,100,86,62,29.90,29.81,14,2,14,0.00
2014-4-24,78.5,70.4,59.5,70.6,65.9,59.2,100,87,66,29.92,29.79,14,2,14,0.00
2014-4-25,82.2,75.5,70.4,72.3,70.0,66.2,98,84,60,29.91,29.83,15,3,15,0.00
2014-4-26,80.7,74.0,66.0,74.0,70.7,65.7,100,90,75,29.93,29.85,13,2,13,0.00
2014-4-27,81.4,76.3,73.3,74.9,73.1,71.4,98,90,73,29.86,29.72,18,4,18,0.00
2014-4-28,81.8,76.9,74.6,76.4,74.6,73.1,99,93,80,29.76,29.59,22,6,22,0.00
2014-4-29,77.2,71.2,65.5,77.0,70.5,65.5,100,98,84,29.69,29.55,26,4,26,34.30
2014-5-1,75.8,64.2,54.1,54.8,47.8,40.5,77,58,29,30.03,29.90,0,0,0,0.00
2014-5-2,77.2,65.5,53.8,55.3,50.9,41.5,93,63,29,29.95,29.85,0,0,0,0.00
2014-5-3,81.4,67.5,51.7,63.1,53.9,43.3,95,66,27,30.03,29.93,0,0,0,0.00
2014-5-4,86.5,72.6,59.6,69.1,62.5,57.6,97,73,39,30.08,29.97,0,0,0,0.00
2014-5-5,86.7,73.2,60.5,66.2,59.7,44.6,99,67,27,30.02,29.91,0,0,0,0.00
2014-5-6,80.1,71.7,58.4,66.2,62.6,57.0,97,74,57,29.97,29.88,0,0,0,0.00
2014-5-7,81.8,75.5,71.5,72.9,69.4,66.0,92,82,68,30.01,29.89,0,0,0,0.00
2014-5-8,82.8,76.5,72.0,73.6,71.7,69.5,95,86,70,30.05,29.97,0,0,0,0.00
2014-5-9,77.4,73.9,65.0,75.8,72.9,65.0,100,97,91,30.00,29.89,0,0,0,1.57
2014-5-10,81.6,73.2,64.7,75.8,71.2,64.7,100,94,76,29.96,29.90,0,0,0,0.13
2014-5-11,83.8,77.5,73.5,77.2,75.4,72.6,100,94,78,29.98,29.91,0,0,0,1.28
2014-5-12,84.9,78.7,75.4,76.8,75.1,72.7,100,89,74,30.04,29.91,0,0,0,0.00
2014-5-13,84.7,78.3,72.7,73.9,71.8,68.0,93,81,63,30.00,29.91,0,0,0,0.00
2014-5-14,81.4,72.1,59.3,76.2,68.9,55.1,100,90,76,30.00,29.80,0,0,0,1.95
2014-5-15,73.3,60.8,49.8,55.4,47.3,40.2,93,65,32,30.11,29.99,0,0,0,0.00
2014-5-16,77.7,65.6,49.1,62.6,54.2,48.3,100,70,43,30.12,30.00,0,0,0,0.00
2014-5-17,76.8,67.1,59.6,64.2,59.6,57.6,98,78,54,30.10,30.03,0,0,0,0.00
2014-5-18,82.2,76.2,66.1,65.8,62.3,55.1,89,63,40,30.11,30.05,0,0,0,0.00
2014-5-19,82.0,71.9,58.1,69.9,64.2,57.8,100,79,51,30.11,30.05,0,0,0,0.00
2014-5-20,82.8,75.3,64.5,70.8,68.7,63.0,98,81,63,30.14,30.05,0,0,0,0.00
2014-5-21,83.4,79.0,72.7,70.4,68.3,66.3,89,71,58,30.14,30.06,0,0,0,0.00
2014-5-22,85.3,79.7,63.2,73.2,66.6,62.3,100,66,48,30.12,30.01,0,0,0,0.00
2014-5-23,84.3,77.2,66.3,72.1,68.2,64.7,100,76,53,30.08,29.97,0,0,0,0.00
2014-5-24,84.9,77.2,69.3,72.4,69.9,66.9,99,80,61,30.05,29.96,0,0,0,0.00
2014-5-25,86.7,76.8,65.6,73.1,68.3,62.9,100,77,46,30.03,29.95,0,0,0,0.00
2014-5-26,87.2,77.1,66.3,74.3,69.8,65.7,100,80,51,30.08,30.00,0,0,0,0.00
2014-5-27,84.9,79.8,77.4,75.5,72.7,70.4,86,79,69,30.03,29.90,0,0,0,0.01
2014-5-28,80.5,75.8,69.1,76.6,72.4,68.5,100,90,76,29.90,29.81,0,0,0,0.97
2014-5-29,81.4,74.6,69.4,77.0,72.7,69.4,100,94,76,29.88,29.78,0,0,0,1.22
2014-5-30,83.4,78.2,73.9,76.4,73.9,71.1,95,87,76,29.89,29.81,0,0,0,0.21
2014-5-31,79.4,75.2,71.3,74.5,72.1,69.9,98,90,80,29.93,29.86,0,0,0,0.01
2014-6-1,84.1,76.5,70.9,78.8,73.8,70.2,100,92,74,29.98,29.90,0,0,0,0.26
2014-6-2,83.2,77.5,73.3,77.1,74.4,72.6,100,90,76,30.00,29.93,0,0,0,0.38
2014-6-3,79.8,75.9,72.5,76.4,73.9,72.5,100,94,82,29.99,29.91,0,0,0,0.85
2014-6-4,85.3,78.1,69.9,74.4,72.4,69.0,100,84,66,29.92,29.83,0,0,0,0.00
2014-6-5,85.7,79.9,73.7,76.4,74.1,72.6,98,83,68,29.87,29.81,0,0,0,0.00
2014-6-6,88.2,82.0,73.2,78.0,75.5,72.3,100,81,65,29.91,29.83,0,0,0,0.00
2014-6-7,89.0,83.5,77.0,78.9,77.1,74.8,97,82,64,29.92,29.82,0,0,0,0.00
2014-6-8,89.5,83.6,77.2,78.5,76.0,72.9,95,79,60,29.91,29.80,0,0,0,0.00
2014-6-9,88.8,82.7,77.6,78.6,75.8,73.8,92,80,64,29.86,29.78,0,0,0,0.02
2014-6-10,85.3,77.0,69.8,76.9,73.6,67.0,100,90,66,29.87,29.75,0,0,0,1.79
2014-6-11,87.2,79.5,71.8,74.1,69.9,65.9,97,75,51,29.84,29.74,0,0,0,0.47
2014-6-12,87.8,79.2,68.6,73.9,69.9,64.1,99,76,46,29.88,29.79,0,0,0,0.00
2014-6-13,81.1,74.7,67.6,76.9,71.7,67.3,100,91,65,29.94,29.81,0,0,0,0.60
2014-6-14,86.5,77.0,68.9,76.1,72.4,68.6,100,87,65,29.92,29.88,0,0,0,0.00
2014-6-15,87.8,79.7,70.4,75.7,73.4,69.7,100,82,63,30.02,29.89,0,0,0,0.00
2014-6-16,88.8,82.4,77.4,76.8,75.3,73.4,94,80,64,30.09,30.00,0,0,0,0.00
2014-6-17,90.5,83.5,77.7,76.9,73.9,69.1,93,74,53,30.08,29.98,0,0,0,0.00
2014-6-18,90.3,81.7,71.6,77.4,72.9,69.3,100,77,52,30.05,29.97,0,0,0,0.00
2014-6-19,90.1,83.4,74.7,76.2,73.3,69.6,97,73,57,30.06,29.98,0,0,0,0.00
2014-6-20,92.3,80.0,72.8,75.2,73.1,70.5,99,81,51,30.03,29.93,0,0,0,0.00
2014-6-21,95.9,81.6,70.9,76.8,73.4,70.6,100,78,45,29.97,29.83,0,0,0,0.00
2014-6-22,91.8,78.7,73.0,80.3,74.3,70.8,100,87,57,29.90,29.80,0,0,0,0.43
2014-6-23,90.5,78.3,73.5,79.1,74.8,69.5,100,90,57,29.97,29.83,0,0,0,0.04
2014-6-24,90.7,80.0,72.1,77.5,73.8,68.3,100,83,57,30.01,29.94,0,0,0,0.00
2014-6-25,88.2,78.6,70.9,76.1,73.2,70.5,99,85,60,30.08,29.97,0,0,0,0.37
2014-6-26,88.0,77.3,70.4,81.2,74.0,70.1,100,91,66,30.07,29.91,0,0,0,0.52
2014-6-27,88.6,82.3,80.3,79.1,77.8,76.8,96,87,70,30.03,29.98,0,0,0,0.00
2014-6-28,90.1,85.6,82.2,80.1,77.8,76.2,85,78,69,30.06,30.01,0,0,0,0.00
2014-6-29,89.9,84.6,80.5,79.7,78.1,76.8,91,81,69,30.09,30.00,0,0,0,0.00
2014-6-30,93.2,84.2,76.1,79.9,76.5,66.5,99,79,46,30.02,29.91,0,0,0,0.00
2014-7-1,95.6,85.0,76.5,78.7,76.2,72.0,98,77,48,29.96,29.86,0,0,0,0.00
2014-7-2,96.1,83.3,75.6,79.7,76.4,68.3,99,81,53,29.97,29.86,0,0,0,0.00
2014-7-3,93.6,81.6,72.3,75.6,71.9,66.6,97,75,44,30.01,29.89,0,0,0,0.00
2014-7-4,90.5,79.7,69.8,73.9,67.7,58.9,96,70,37,30.10,30.01,0,0,0,0.00
2014-7-5,89.0,79.0,66.4,70.8,65.9,58.8,93,67,39,30.10,30.00,0,0,0,0.00
2014-7-6,88.8,78.3,66.6,70.6,66.9,61.8,97,71,44,30.02,29.92,0,0,0,0.00
2014-7-7,91.2,80.6,67.6,74.2,68.4,57.3,100,70,36,30.00,29.92,0,0,0,0.00
2014-7-8,89.0,81.2,73.2,76.6,73.4,68.9,96,78,62,30.03,29.92,0,0,0,0.00
2014-7-9,93.4,79.6,74.6,79.1,75.2,70.1,100,88,51,30.02,29.94,0,0,0,0.72
2014-7-10,94.7,80.7,73.3,83.1,75.3,71.2,100,86,50,30.03,29.95,0,0,0,0.14
2014-7-11,94.5,78.6,72.5,78.6,74.7,72.2,100,90,52,30.09,29.99,0,0,0,0.55
2014-7-12,92.7,81.1,73.5,80.9,76.6,72.7,100,88,58,30.07,29.98,0,0,0,0.43
2014-7-13,88.2,80.3,74.0,79.8,75.4,72.8,100,86,67,30.05,29.93,0,0,0,0.11
2014-7-14,87.8,80.2,75.1,77.5,75.5,73.6,97,86,68,29.99,29.92,0,0,0,0.06
2014-7-28,96.6,87.4,79.2,79.5,77.7,73.7,92,74,49,29.99,29.86,0,0,0,0.00
2014-7-29,91.4,83.2,72.0,77.5,70.7,62.2,89,68,39,29.98,29.89,0,0,0,0.00
2014-7-30,89.5,78.5,65.8,70.3,64.6,56.1,89,65,34,29.98,29.90,0,0,0,0.00
2014-7-31,91.2,77.6,65.8,71.3,65.4,57.1,91,69,32,29.96,29.90,0,0,0,0.00
2014-8-1,87.0,77.3,71.6,72.4,69.6,66.9,94,78,53,29.94,29.87,0,0,0,0.00
2014-8-2,85.7,79.5,74.2,74.0,72.3,68.8,94,79,60,29.90,29.87,0,0,0,0.00
2014-8-3,89.3,76.5,73.2,79.4,73.2,72.1,98,90,62,29.93,29.86,0,0,0,0.02
2014-8-4,73.2,72.3,71.5,72.6,72.1,70.9,100,99,98,29.95,29.85,0,0,0,0.00
2014-8-5,92.1,29.9,0.0,79.0,27.6,0.0,100,30,59,30.00,29.91,0,0,0,0.00
2014-8-6,94.0,84.2,77.4,78.8,75.6,72.1,87,76,54,29.98,29.89,0,0,0,0.00
2014-8-7,92.1,83.6,74.0,79.9,75.9,69.9,100,79,58,29.94,29.83,0,0,0,0.00
2014-8-8,93.2,86.1,79.0,78.9,77.5,73.6,96,76,54,29.95,29.84,0,0,0,0.00
2014-8-9,92.7,83.5,73.9,80.3,77.0,71.9,100,82,57,29.97,29.86,0,0,0,0.09
2014-8-10,89.5,79.0,72.5,80.0,75.3,72.3,100,89,64,29.98,29.88,0,0,0,0.00
2014-8-11,95.1,77.3,0.0,77.1,72.3,0.0,99,84,47,29.96,29.86,0,0,0,0.03
2014-8-12,91.8,79.0,72.5,78.9,75.1,71.3,100,89,57,29.89,29.79,0,0,0,0.02
2014-8-13,91.0,81.8,73.3,76.8,74.4,71.1,96,79,56,29.92,29.85,0,0,0,0.00
2014-8-14,92.1,80.6,70.1,71.4,68.6,62.0,88,69,39,29.96,29.87,0,0,0,0.00
2014-8-15,92.7,78.5,66.6,70.8,68.7,60.1,97,75,38,29.97,29.86,0,0,0,0.00
2014-8-16,91.2,80.8,69.9,79.2,74.2,66.8,99,81,63,29.96,29.89,0,0,0,0.00
2014-8-17,89.5,80.7,74.7,81.5,77.4,71.8,98,90,63,29.98,29.91,0,0,0,0.21
2014-8-18,91.8,83.7,78.5,80.1,77.2,72.3,96,82,59,29.95,29.84,0,0,0,0.00
2014-8-19,91.0,84.3,77.4,79.7,76.4,71.4,97,78,57,29.94,29.85,0,0,0,0.00
2014-8-20,91.0,83.4,76.5,78.6,76.3,72.8,98,80,60,30.01,29.89,0,0,0,0.00
2014-8-21,92.5,80.9,0.0,80.0,76.8,0.0,100,88,58,30.06,29.99,0,0,0,0.00
2014-8-22,94.3,83.9,75.1,78.8,76.3,73.7,99,80,54,30.03,29.92,0,0,0,0.00
2014-8-23,97.1,84.5,77.9,80.8,77.1,73.6,96,80,48,29.95,29.82,0,0,0,0.04
2014-8-24,100.2,87.1,76.0,77.5,74.4,68.2,98,70,36,29.86,29.75,0,0,0,0.00
2014-8-25,86.1,81.0,77.0,79.6,75.8,72.9,96,85,69,29.86,29.78,0,0,0,0.02
2014-8-26,89.7,80.4,71.3,75.6,72.5,68.4,96,78,59,29.93,29.84,0,0,0,0.00
2014-8-27,91.0,81.9,73.3,77.8,74.3,72.1,99,79,56,29.95,29.89,0,0,0,0.00
2014-8-28,89.7,82.0,74.7,77.1,74.5,71.7,97,79,64,29.93,29.84,0,0,0,0.00
2014-8-29,89.0,78.2,73.0,79.5,75.2,72.1,100,91,70,29.95,29.85,0,0,0,0.10
2014-8-30,89.3,81.6,74.0,80.3,77.5,72.7,100,88,73,29.99,29.91,0,0,0,0.13
2014-8-31,90.5,82.7,73.9,80.1,77.5,73.9,100,85,68,30.03,29.95,0,0,0,0.00
2014-9-1,90.3,84.4,80.5,79.7,77.3,71.7,90,80,64,30.00,29.92,0,0,0,0.00
2014-9-2,89.9,84.6,73.0,79.9,77.3,71.6,98,79,65,30.00,29.90,0,0,0,0.01
2014-9-3,92.3,80.6,72.3,76.7,74.2,69.4,100,83,50,29.98,29.86,0,0,0,0.01
2014-9-4,89.7,81.7,74.6,77.8,75.2,71.8,100,82,57,30.00,29.93,0,0,0,0.00
2014-9-5,89.5,79.6,73.7,77.9,75.0,73.4,100,87,63,30.07,29.94,0,0,0,0.01
2014-9-6,92.7,81.1,72.0,75.7,74.0,71.1,99,81,52,29.98,29.86,0,0,0,0.00
2014-9-7,92.1,80.2,74.0,77.4,74.3,71.7,99,84,53,29.91,29.82,0,0,0,0.00
2014-9-8,89.5,76.2,73.2,80.2,73.9,70.7,100,93,62,29.92,29.86,0,0,0,0.08
2014-9-9,90.7,81.9,72.5,79.3,75.1,72.2,100,82,60,29.95,29.85,0,0,0,0.00
2014-9-10,90.7,83.5,76.7,78.7,76.0,73.9,96,79,64,29.90,29.83,0,0,0,0.03
2014-9-11,91.6,84.1,77.2,78.1,76.0,74.3,96,78,61,29.92,29.84,0,0,0,0.00
2014-9-12,91.6,80.8,75.3,79.1,76.3,74.5,99,87,63,29.95,29.86,0,0,0,0.00
2014-9-13,90.1,78.4,73.3,76.7,74.7,70.2,99,89,61,30.01,29.88,0,0,0,0.00
2014-9-14,91.6,79.2,68.3,76.8,72.3,67.1,96,81,54,30.03,29.95,0,0,0,0.00
2014-9-15,89.9,79.4,74.0,78.4,75.4,73.4,100,89,64,30.03,29.95,0,0,0,0.00
2014-9-16,89.0,76.8,72.7,77.4,73.9,71.5,100,91,62,30.00,29.88,0,0,0,0.08
2014-9-17,88.6,78.0,71.3,75.5,73.3,71.3,100,87,59,29.90,29.80,0,0,0,0.00
2014-9-18,88.2,77.9,70.9,77.3,73.7,69.9,100,88,62,29.87,29.78,0,0,0,0.48
2014-9-19,87.4,77.9,71.5,82.8,71.3,65.5,100,82,51,29.90,29.81,0,0,0,0.00
2014-9-20,87.6,80.4,69.6,72.9,69.9,59.8,97,71,55,29.92,29.84,0,0,0,0.00
2014-9-21,87.4,79.1,67.1,72.6,70.4,60.9,98,76,56,29.95,29.88,0,0,0,0.00
2014-9-22,91.8,78.8,67.8,75.8,70.0,64.5,100,76,42,29.97,29.87,0,0,0,0.00
2014-9-23,75.1,62.1,0.0,66.2,55.1,0.0,84,73,74,30.03,29.93,0,0,0,0.00
2014-9-24,85.5,72.1,62.3,72.4,61.6,55.4,78,70,53,30.08,29.98,0,0,0,0.00
2014-9-25,82.8,77.4,64.0,68.4,66.4,52.3,99,69,54,30.10,29.99,0,0,0,0.00
2014-9-26,81.4,76.5,65.2,68.4,66.9,63.9,96,73,58,30.03,29.93,0,0,0,0.00
2014-9-27,82.2,74.9,65.3,72.0,69.2,61.9,95,83,67,29.95,29.88,0,0,0,0.00
2014-9-28,81.6,76.2,72.5,74.6,72.6,66.7,99,89,77,29.92,29.83,0,0,0,0.14
2014-9-29,87.2,76.9,72.1,74.7,73.4,71.9,100,90,64,29.84,29.76,0,0,0,0.00
2014-9-30,83.4,77.6,69.8,75.1,73.3,69.8,100,87,72,29.83,29.76,0,0,0,0.00
2014-10-1,83.2,77.5,70.3,75.9,73.6,67.2,100,88,72,29.89,29.79,0,0,0,0.00
2014-10-2,85.7,81.0,77.7,79.7,77.4,74.5,98,89,78,29.93,29.83,0,0,0,0.00
2014-10-3,82.0,77.2,0.0,78.2,73.8,0.0,100,88,67,29.97,29.82,0,0,0,0.00
2014-10-4,73.3,66.6,54.4,67.9,52.9,36.1,87,66,27,30.02,29.95,0,0,0,0.00
2014-10-5,75.8,65.0,47.4,61.0,52.6,43.0,99,68,35,30.00,29.90,0,0,0,0.00
2014-10-6,82.2,74.7,70.4,69.8,65.7,61.0,85,74,63,29.96,29.85,0,0,0,0.00
2014-10-7,83.0,76.9,71.3,74.1,71.3,69.8,99,83,67,29.98,29.88,0,0,0,0.00
2014-10-8,85.5,76.9,66.4,78.3,72.8,64.9,100,88,66,30.04,29.95,0,0,0,0.00
2014-10-9,84.5,78.0,67.3,77.2,73.9,65.5,100,88,73,30.02,29.92,0,0,0,0.00
2014-10-10,84.9,80.4,73.9,77.1,74.4,70.5,99,82,65,29.98,29.90,0,0,0,0.00
2014-10-11,85.5,80.6,73.9,75.7,73.9,68.1,97,81,66,29.97,29.88,0,0,0,0.00
2014-10-12,85.5,79.6,72.1,75.4,73.4,68.2,99,82,67,29.94,29.85,0,0,0,0.00
2014-10-13,85.7,79.8,71.8,79.0,75.1,70.5,100,86,75,29.89,29.67,0,0,0,0.79
2014-10-14,77.4,68.6,0.0,73.0,62.7,0.0,100,81,36,29.92,29.70,0,0,0,0.00
2014-10-15,62.1,62.1,62.1,52.2,52.2,52.2,70,70,70,29.94,29.90,0,0,0,0.00
2014-10-16,81.6,65.5,48.6,58.5,52.4,44.0,98,68,28,29.95,29.86,0,0,0,0.00
2014-10-17,82.4,67.8,52.8,67.4,60.0,52.8,100,78,41,29.95,29.85,0,0,0,0.00
2014-10-18,84.3,73.8,62.0,70.0,66.9,57.5,100,80,53,29.95,29.86,0,0,0,0.00
2014-10-19,75.6,69.1,56.3,69.0,59.2,49.6,88,73,44,30.04,29.95,0,0,0,0.00
2014-10-20,81.1,60.2,0.0,60.3,52.3,0.0,94,71,36,29.99,29.89,0,0,0,0.00
2014-10-21,79.2,71.9,52.9,58.5,55.5,46.6,96,59,40,29.98,29.87,0,0,0,0.01
2014-10-22,79.4,77.4,61.3,56.6,54.0,51.0,83,45,38,30.02,29.92,0,0,0,0.00
2014-10-23,79.2,64.2,0.0,53.5,43.9,0.0,91,39,39,30.04,29.94,0,0,0,0.00
2014-10-24,0.0,0.0,0.0,0.0,0.0,0.0,0,0,100,30.03,29.93,0,0,0,0.00
2014-10-25,0.0,0.0,0.0,0.0,0.0,0.0,0,0,100,30.06,29.97,0,0,0,0.00
2014-10-26,0.0,0.0,0.0,0.0,0.0,0.0,0,0,100,30.01,29.91,0,0,0,0.00
2014-10-27,0.0,0.0,0.0,0.0,0.0,0.0,0,0,100,30.00,29.93,0,0,0,0.00
2014-10-28,81.6,42.7,0.0,70.9,38.5,0.0,95,44,62,30.04,29.95,0,0,0,0.00
2014-10-29,85.9,76.5,64.5,73.1,69.8,63.0,100,81,53,30.01,29.90,0,0,0,0.00
2014-10-30,79.8,75.3,55.3,70.4,51.6,37.9,74,47,27,30.03,29.92,0,0,0,0.00
2014-10-31,75.1,75.1,75.1,38.9,38.9,38.9,27,27,27,30.09,29.87,0,0,0,0.00
2014-11-1,75.1,75.1,75.1,38.9,38.9,38.9,27,27,27,30.28,30.09,0,0,0,0.00
2014-11-2,75.1,75.1,75.1,38.9,38.9,38.9,27,27,27,30.36,30.24,0,0,0,0.00
2014-11-3,75.1,47.5,0.0,38.9,24.6,0.0,27,17,27,30.31,30.21,0,0,0,0.00
2014-11-4,0.0,0.0,0.0,0.0,0.0,0.0,0,0,100,30.21,30.09,0,0,0,0.00
2014-11-5,0.0,0.0,0.0,0.0,0.0,0.0,0,0,100,30.13,30.05,0,0,0,0.00
2014-11-6,80.9,43.5,0.0,70.0,37.6,0.0,100,45,64,30.08,29.99,19,3,20,0.00
2014-11-7,65.5,58.7,45.4,50.0,43.1,35.4,80,57,34,30.11,29.94,20,5,20,0.00
2014-11-8,57.0,57.0,57.0,43.3,43.3,43.3,60,60,60,29.98,29.87,0,0,0,0.00
2014-11-9,57.0,57.0,57.0,43.3,43.3,43.3,60,60,60,30.00,29.89,0,0,0,0.00
2014-11-10,57.0,57.0,57.0,43.3,43.3,43.3,60,60,60,29.99,29.87,0,0,0,0.00
2014-11-11,73.3,63.9,57.0,65.9,55.7,43.3,96,76,60,29.96,29.85,9,0,9,0.00
2014-11-12,67.3,60.1,50.2,64.1,55.9,46.4,95,86,68,30.08,29.92,18,3,19,0.00
2014-11-13,50.2,35.1,0.0,46.8,31.3,0.0,88,60,59,30.21,30.06,12,3,15,0.00
2014-11-14,51.3,42.3,30.9,31.4,24.9,14.7,76,53,24,30.29,30.16,13,3,18,0.00
2014-11-15,56.9,46.9,32.1,35.7,29.7,19.4,77,54,27,30.27,30.09,10,1,10,0.00
2014-11-16,56.3,56.3,56.3,35.2,35.2,35.2,45,45,45,30.09,29.73,0,0,0,0.00
2014-11-17,56.3,47.2,34.3,42.4,33.3,26.1,98,60,45,30.25,29.70,27,4,27,0.00
2014-11-18,48.8,40.7,32.4,26.9,21.3,11.9,76,49,23,30.41,30.25,28,3,28,0.00
2014-11-19,53.8,47.1,32.1,37.1,24.7,8.6,97,42,31,30.38,30.21,12,1,12,0.00
2014-11-20,64.5,53.7,0.0,54.6,38.7,0.0,100,52,48,30.23,30.13,12,4,12,0.00
2014-11-21,0.0,0.0,0.0,0.0,0.0,0.0,0,0,100,30.24,30.14,0,0,0,0.00
2014-11-22,0.0,0.0,0.0,0.0,0.0,0.0,0,0,100,30.18,29.99,0,0,0,0.00